Racecast

Kyron Green

HR-Hurricanes (VA) · - · Compare head to head

Athlete rating
Races 59
Seasons 5 2022 — 2026
Speed rating — all races

Track & Field

TF speed rating

2026 TF

HR-Hurricanes (VA) · Grade -

Date Meet Event Result Place Rating Difficulty PR/SR Flags
2026-05-24 HR Hurricanes CAT 5 Invite lj 19' 0.25" -0.035
2026-05-24 HR Hurricanes CAT 5 Invite 100m 12.23 16th · 3rd on team -0.035 ★PR SR
2026-05-24 HR Hurricanes CAT 5 Invite 200m 25.36 11th · 3rd on team -0.035 ★PR SR

2025 TF

Bethel (WA) · Grade -

Date Meet Event Result Place Rating Difficulty PR/SR Flags
2025-03-23 adidas Track Nationals 2025 55m 7.89 41st · 1st on team -0.036 SR
2025-03-23 adidas Track Nationals 2025 60m 8.57 47th · 1st on team -0.036 SR

2024 TF

HR-Hurricanes (VA) · Grade 13

Date Meet Event Result Place Rating Difficulty PR/SR Flags
2024-06-29 AAU Region 05 National Qualifier lj 14-04.50 -0.034
2024-06-29 AAU Region 05 National Qualifier 100m 13.65 22nd · 1st on team -0.034
2024-06-29 AAU Region 05 National Qualifier 200m 26.93 22nd · 1st on team -0.034 PR SR
2024-06-29 AAU Region 05 National Qualifier 400m 1:08.67 26th · 1st on team -0.034
2024-06-08 AAU Virginia South District Qualifier lj 15-10.50 -0.029
2024-06-08 AAU Virginia South District Qualifier 200m 26.97 10th · 2nd on team -0.029 PR SR
2024-06-08 AAU Virginia South District Qualifier 100m 13.29 13th · 2nd on team -0.029
2024-06-08 AAU Virginia South District Qualifier 400m 1:11.06 16th · 2nd on team -0.029
2024-06-01 VB Flames Invitational lj 16-05.00 -0.023
2024-06-01 VB Flames Invitational 100m 13.21 22nd · 3rd on team -0.023
2024-06-01 VB Flames Invitational 200m 28.59 21st · 4th on team -0.023
2024-06-01 VB Flames Invitational 400m 1:12.53 21st · 3rd on team -0.023
2024-05-26 HR Hurricanes CAT 5 Invite (CANCELED) (CANCELED) lj 16' 2" -0.019
2024-05-26 HR Hurricanes CAT 5 Invite (CANCELED) (CANCELED) 200m 28.57 12th · 2nd on team -0.019
2024-05-26 HR Hurricanes CAT 5 Invite (CANCELED) (CANCELED) 400m 1:07.41 20th · 1st on team -0.019
2024-05-26 HR Hurricanes CAT 5 Invite (CANCELED) (CANCELED) 100m 13.08 17th · 3rd on team -0.019 PR SR
2024-05-11 2024 EE Lightning "Legends" Invite lj 14-09.50 -0.043
2024-05-11 2024 EE Lightning "Legends" Invite 200m 27.46 13th · 2nd on team -0.043 PR SR
2024-05-11 2024 EE Lightning "Legends" Invite 100m 13.62 15th · 1st on team -0.043
2024-05-05 2024 Technique Relays lj 12' 11" -0.015
2024-05-05 2024 Technique Relays 100m 13.64 15th · 2nd on team -0.015
2024-04-20 Darius Dixon Invite lj 15-03.00 -0.019
2024-04-20 Darius Dixon Invite 400m 1:08.41 18th · 2nd on team -0.019
2024-04-20 Darius Dixon Invite 100m 13.71 13th · 2nd on team -0.019
2024-04-20 Darius Dixon Invite 200m 28.14 11th · 2nd on team -0.019 PR SR
2024-04-13 Speed Capital Richmond lj 4.50m -0.033
2024-04-13 Speed Capital Richmond 200m 29.63 13th · 1st on team -0.033
2024-04-13 Speed Capital Richmond 400m 1:12.75 9th · 1st on team -0.033
2024-04-13 Speed Capital Richmond 100m 13.23 12th · 1st on team -0.033 PR SR
2024-04-13 Speed Capital Richmond 100m 13.57 16th · 2nd on team -0.033
2024-03-17 adidas Track Nationals 400m 1:09.02 40th · 2nd on team -0.036
2024-03-17 adidas Track Nationals 60m 8.43 39th · 1st on team -0.036 ★PR SR
2024-03-17 adidas Track Nationals 200m 28.21 43rd · 1st on team -0.036
2024-02-24 BWSP Queens and Kings: Meet 4 400m 1:09.16 20th · 2nd on team -0.024
2024-02-24 BWSP Queens and Kings: Meet 4 55m 7.86 24th · 4th on team -0.024
2024-02-24 BWSP Queens and Kings: Meet 4 200m 28.39 17th · 1st on team -0.024
2024-02-18 HRH Winter Storm Classic 200m 29.81 16th · 3rd on team -0.024
2024-02-18 HRH Winter Storm Classic 55m 8.18 21st · 6th on team -0.024
2024-02-18 HRH Winter Storm Classic 400m 1:17.34 17th · 4th on team -0.024
2024-02-03 BWSP Queens and Kings 200m 28.16 13th · 2nd on team -0.014 PR SR
2024-02-03 BWSP Queens and Kings 400m 1:07.05 17th · 3rd on team -0.014 ★PR SR
2024-02-03 BWSP Queens and Kings 55m 7.79 23rd · 2nd on team -0.014 ★PR SR
2024-01-20 BWSP Queens and Kings 200m 28.48 18th · 1st on team -0.014 PR SR
2024-01-20 BWSP Queens and Kings 55m 7.81 22nd · 3rd on team -0.014
2024-01-20 BWSP Queens and Kings 400m 1:07.5 20th · 2nd on team -0.014 PR SR
2024-01-06 BWSP Queens and Kings 400m 1:09.9 23rd · 4th on team -0.024 PR SR
2024-01-06 BWSP Queens and Kings 55m 7.8 24th · 4th on team -0.024 PR SR
2024-01-06 BWSP Queens and Kings 200m 29.89 30th · 4th on team -0.024 PR SR

2023 TF

HR-Hurricanes (VA) · Grade 12

Date Meet Event Result Place Rating Difficulty PR/SR Flags
2023-01-29 The TRACK 757 Invitational 400m 1:13.73 28th · 1st on team -0.036 PR SR
2023-01-29 The TRACK 757 Invitational 200m 30.16 27th · 1st on team -0.036 PR SR
2023-01-29 The TRACK 757 Invitational 60m 9.05 29th · 1st on team -0.036 PR SR

2022 TF

HR-Hurricanes (VA) · Grade 11

Date Meet Event Result Place Rating Difficulty PR/SR Flags
2022-06-26 AAU Region 05 National Qualifier javelin 70-11 -0.030
2022-06-26 AAU Region 05 National Qualifier 200m 30.38 23rd · 1st on team -0.030 PR SR
2022-06-26 AAU Region 05 National Qualifier 100m 14.68 25th · 2nd on team -0.030 PR SR